TimeMDT,TemperatureF,Dew PointF,Humidity,Sea Level PressureIn,VisibilityMPH,Wind Direction,Wind SpeedMPH,Gust SpeedMPH,PrecipitationIn,Events,Conditions,WindDirDegrees,DateUTC
12:51 AM,32.0,27.0,82,30.02,10.0,Calm,Calm,-,N/A,,Clear,0,2013-10-12 06:51:00
1:51 AM,32.0,26.1,79,30.02,10.0,Calm,Calm,-,N/A,,Clear,0,2013-10-12 07:51:00
2:51 AM,30.9,26.1,82,30.03,10.0,Calm,Calm,-,N/A,,Clear,0,2013-10-12 08:51:00
3:51 AM,32.0,26.1,79,30.01,10.0,Calm,Calm,-,N/A,,Overcast,0,2013-10-12 09:51:00
4:51 AM,32.0,27.0,82,30.01,10.0,Calm,Calm,-,N/A,,Mostly Cloudy,0,2013-10-12 10:51:00
5:51 AM,32.0,27.0,82,30.00,10.0,Calm,Calm,-,N/A,,Overcast,0,2013-10-12 11:51:00
6:51 AM,30.9,27.0,85,30.02,10.0,Calm,Calm,-,N/A,,Overcast,0,2013-10-12 12:51:00
7:51 AM,30.9,27.0,85,30.04,10.0,NE,3.5,-,N/A,,Overcast,50,2013-10-12 13:51:00
8:51 AM,30.9,27.0,85,30.05,10.0,Calm,Calm,-,N/A,,Mostly Cloudy,0,2013-10-12 14:51:00
9:51 AM,34.0,28.0,79,30.04,10.0,Calm,Calm,-,N/A,,Scattered Clouds,0,2013-10-12 15:51:00
10:51 AM,39.0,30.0,70,30.02,10.0,Calm,Calm,-,N/A,,Mostly Cloudy,0,2013-10-12 16:51:00
11:51 AM,41.0,30.9,67,30.01,10.0,Calm,Calm,-,N/A,,Overcast,0,2013-10-12 17:51:00
12:51 PM,45.0,28.9,53,30.00,10.0,NE,3.5,-,N/A,,Overcast,50,2013-10-12 18:51:00
1:51 PM,44.1,30.0,58,30.00,10.0,Calm,Calm,-,N/A,,Overcast,0,2013-10-12 19:51:00
2:51 PM,46.0,28.9,51,29.98,10.0,Calm,Calm,-,N/A,,Overcast,0,2013-10-12 20:51:00
3:51 PM,48.9,30.9,50,29.96,10.0,WNW,3.5,-,N/A,,Mostly Cloudy,290,2013-10-12 21:51:00
4:51 PM,48.0,30.0,50,29.96,10.0,NW,3.5,-,N/A,,Overcast,320,2013-10-12 22:51:00
5:51 PM,48.0,30.0,50,29.96,10.0,NW,3.5,-,N/A,,Overcast,310,2013-10-12 23:51:00
6:51 PM,45.0,30.9,58,29.98,10.0,WNW,4.6,-,N/A,,Overcast,300,2013-10-13 00:51:00
7:51 PM,44.1,32.0,63,29.99,10.0,North,6.9,-,N/A,,Overcast,10,2013-10-13 01:51:00
8:51 PM,41.0,32.0,70,30.01,10.0,NNE,9.2,-,N/A,,Clear,20,2013-10-13 02:51:00
9:51 PM,42.1,32.0,67,30.01,10.0,North,8.1,-,N/A,,Overcast,10,2013-10-13 03:51:00
10:51 PM,41.0,32.0,70,30.01,10.0,NNE,5.8,-,N/A,,Overcast,20,2013-10-13 04:51:00
11:51 PM,39.9,32.0,73,30.01,10.0,North,3.5,-,N/A,,Scattered Clouds,10,2013-10-13 05:51:00